Regional Weather Roundup
Issued by NWS

Home | Current Version | Previous Version | Graphics & Text | Print | Product List | Glossary On
Versions: 1 2 3 4 5 6 7 8 9 10 11 12 13 14 15 16 17 18 19 20 21 22 23 24 25 26 27 28 29 30 31 32 33 34 35 36 37 38 39 40 41 42 43 44 45 46 47 48 49 50
000
ASUS43 KMPX 210810
RWRMN
WEATHER ROUNDUP FOR MINNESOTA
NATIONAL WEATHER SERVICE TWIN CITIES/CHANHASSEN MN
200 AM CST TUE NOV 21 2017


NOTE: "FAIR" INDICATES FEW OR NO CLOUDS BELOW 12,000 FEET WITH NO
SIGNIFICANT WEATHER AND/OR OBSTRUCTIONS TO VISIBILITY. N/A MEANS
CURRENT SKY AND/OR WEATHER CONDITIONS ARE NOT AVAILABLE.

MNZ060>063-068>070-210900-
   Twin Cities Metro

CITY           SKY/WX    TMP DP  RH WIND       PRES   REMARKS
TWIN CITIES    PTCLDY    36  21  54 W16G29    29.60R
ST PAUL        CLEAR     37  20  50 W23G35    29.61R
CRYSTAL        CLEAR     35  19  52 W17       29.59R WCI  25
BLAINE         CLEAR     36  21  55 W14G23    29.59R
LAKEVILLE      CLEAR     34  21  60 W21G29    29.61R WCI  22
EDEN PRAIRIE   PTCLDY    36  18  48 W18G25    29.61R
SOUTH ST PAUL  CLEAR     38  20  49 W16G23    29.60R
LAKE ELMO      FAIR      36  25  64 W15G23    29.58R
$$
MNZ001>005-007-008-013>017-022>024-027-028-210900-
   Northwest Minnesota

CITY           SKY/WX    TMP DP  RH WIND       PRES   REMARKS
BEMIDJI        LGT SNOW  19  13  78 NW32G40   29.59R WCI  -1
HALLOCK        LGT SNOW  18  12  79 NW29G35   29.75R WCI  -2
ROSEAU         LGT SNOW  18  12  79 NW21G26   29.62R WCI   1
WARROAD        LGT SNOW  18  12  79 NW18G32   29.59R WCI   2
CROOKSTON      FLURRIES  18  10  73 NW28G40   29.76R WCI  -1
FOSSTON        FLURRIES  16   9  73 NW28G38   29.69R WCI  -4
DETROIT LAKES  CLOUDY    23  14  68 NW26G38   29.68R WCI   6
MOORHEAD       CLOUDY    23  14  68 NW33G41   29.76R WCI   5
PARK RAPIDS    CLOUDY    21  11  65 NW26G43   29.60R WCI   4
MAHNOMEN       PTSUNNY   20  10  66 NW21G26   29.69R WCI   4
$$
MNZ006-009>011-018-025>026-210900-
   North Central Minnesota

CITY           SKY/WX    TMP DP  RH WIND       PRES   REMARKS
BAUDETTE       LGT SNOW  19  13  77 NW26G35   29.52R WCI   1
FLAG ISLAND    CLOUDY    18  12  79 NW29G38   29.56R HAZE    WCI  -2
INTL FALLS     LGT SNOW  20  15  81 W16G28    29.46R WCI   6
WASKISH        LGT SNOW  18  16  93 W23       29.56R WCI   0
BIG FORK       FLURRIES  23  12  63 NW7G21    29.50R WCI  15
LONGVILLE      FLURRIES  25  12  58 NW22G31   29.57R WCI  10
GRAND RAPIDS   FLURRIES  24  14  65 NW26G33   29.52R WCI   8
CRANE LAKE     LGT SNOW  23  16  74 W9G18     29.43R WCI  13
ORR            CLOUDY    21  10  63 W22G31    29.41R WCI   5
COOK           FLURRIES  23  16  74 W17G28    29.43R WCI   9
WALKER         LGT SNOW  21  14  75 W18G30    29.58R WCI   6
$$
MNZ012-019>021-037-210900-
   Northeast Minnesota

CITY           SKY/WX    TMP DP  RH WIND       PRES   REMARKS
DULUTH         CLOUDY    28  19  69 NW25G36   29.41R WCI  13
ELY            LGT SNOW  25  16  68 W28G37    29.36R WCI   8
HIBBING        LGT SNOW  24  16  71 W15G31    29.44R WCI  11
EVELETH        LGT SNOW  25  18  74 NW17G29   29.42R WCI  11
DULUTH HARBOR  MOCLDY    34  21  60 W23       29.45R WCI  22
TWO HARBORS    CLOUDY    36  25  64 W12G24    29.36R
SILVER BAY     FLURRIES  30  21  69 W9G24     29.34R WCI  22
GRAND MARAIS     N/A     35  26  69 W14G28    29.26R WCI  26
G MARAIS ARPRT FLURRIES  27  18  69 W14G28    29.21R WCI  15
$$
MNZ029>031-032-039>041-046>048-054>057-064-210900-
   West Central Minnesota

CITY           SKY/WX    TMP DP  RH WIND       PRES   REMARKS
FERGUS FALLS   FLURRIES  23  16  74 NW30G37   29.75R WCI   5
WHEATON        MOCLDY    25  10  54 NW28G40   29.80R WCI   8
MORRIS         PTCLDY    25  16  68 NW20      29.74R WCI  11
ALEXANDRIA     CLOUDY    25  16  68 NW23G30   29.68R WCI  10
ELBOW LAKE     CLOUDY    25  15  67 NW26G36   29.73R WCI   8
WADENA         CLOUDY    21  10  63 NW23G39   29.64R WCI   5
GLENWOOD       CLOUDY    25  18  74 NW24G33   29.69R WCI   9
APPLETON         N/A     28   9  43 NW28G36   29.75R WCI  13
BENSON         PTCLDY    27  16  63 N22G28    29.74R WCI  12
ORTONVILLE     PTCLDY    28  14  54 MISG      29.76R
MADISON        CLOUDY    34  19  55 NW24G32   29.76R WCI  21
WILLMAR        FAIR      28  18  64 NW22G31   29.72R WCI  15
$$
MNZ033>034-036-042>043-049>051-058-059-210900-
   Central Minnesota

CITY           SKY/WX    TMP DP  RH WIND       PRES   REMARKS
ST CLOUD       CLEAR     30  20  66 W21G29    29.61R WCI  17
SAUK CENTRE    CLOUDY    27  18  70 NW22G31   29.66R WCI  13
PAYNESVILLE    CLEAR     28  20  73 NW22G35   29.67R WCI  13
AITKIN         CLOUDY    27  16  63 W16G24    29.53R WCI  14
PINE RIVER     CLOUDY    21  12  68 W12G25    29.63R WCI   9
BRAINERD       FLURRIES  25  13  60 W24G38    29.60R WCI   9
STAPLES        CLOUDY    21  10  63 NW26G32   29.63R WCI   4
LONG PRAIRIE   CLOUDY    27  16  63 W23G37    29.64R WCI  12
LITTLE FALLS   CLEAR     27   7  43 W28G37    29.65R WCI  11
LITCHFIELD     CLEAR     30  18  59 NW20G31   29.66R WCI  18
BUFFALO        CLEAR     32  19  57 W22G29    29.64R WCI  19
MAPLE LAKE     CLEAR     32  22  67 W17G25    29.63R WCI  21
HUTCHINSON     PTCLDY    32  17  54 W17G28    29.68R WCI  21
$$
MNZ037-044-045-052-053-210900-
   East Central Minnesota

CITY           SKY/WX    TMP DP  RH WIND       PRES   REMARKS
PRINCETON      CLEAR     32  21  64 W22G30    29.58R WCI  19
MORA           CLEAR     32  21  64 W17G24    29.55R WCI  21
CAMBRIDGE      CLEAR     36  23  60 W10G24    29.57R
RUSH CITY      CLEAR     33  25  72 W15G21    29.54R WCI  23
MOOSE LAKE     CLOUDY    32  19  59 W15G24    29.48R WCI  22
HINCKLEY       FAIR      32  25  74 W12G18    29.51R WCI  23
CLOQUET        MOCLDY    28  14  54 W24G37    29.46R WCI  14
MCGREGOR       CLOUDY    30  19  64 NW18G24   29.51R WCI  18
$$
MNZ071>073-080-081-089-090-097-098-210900-
   Southwest Minnesota

CITY           SKY/WX    TMP DP  RH WIND       PRES   REMARKS
MONTEVIDEO     PTCLDY    30  12  47 N30G39    29.73R WCI  15
GRANITE FALLS  PTCLDY    32  17  53 NW13      29.75R WCI  22
CANBY          MOCLDY    34  19  53 NW15      29.76R WCI  24
MARSHALL       CLOUDY    34  15  46 NW15      29.75R WCI  24
REDWOOD FALLS  CLEAR     34  12  40 NW22G31   29.71R WCI  22
OLIVIA         PTCLDY    32  16  51 NW21G32   29.70R WCI  20
PIPESTONE      CLOUDY    34  16  47 NW10G18   29.76R WCI  26
WINDOM           N/A     37  18  44 NW16G22   29.72R
WORTHINGTON    CLOUDY    36  17  46 NW20G25   29.76R
JACKSON        CLOUDY    36  18  48 NW17G30   29.73R
SLAYTON        CLOUDY    35  17  47 NW16G25   29.75R WCI  25
$$
MNZ065>067-074>077-082>085-091>093-210900-
   South Central Minnesota

CITY           SKY/WX    TMP DP  RH WIND       PRES   REMARKS
MANKATO        CLEAR     35  17  47 NW22G29   29.69R WCI  23
NEW ULM        CLEAR     36  10  35 NW24G33   29.71R
ST JAMES       CLOUDY    36  14  41 NW18      29.73R
FAIRMONT       MOCLDY    37  18  46 NW22G31   29.71R
GLENCOE        CLEAR     34  20  57 W20G26    29.65R WCI  23
FARIBAULT      CLEAR     36  19  51 W21G31    29.64R
OWATONNA       CLEAR     36  21  55 W22       29.65R
WASECA         CLEAR     36  23  60 W23G32    29.68R
ALBERT LEA     CLEAR     36  21  55 NW10G18   29.66R
$$
MNZ078>079-086>088-094>096-210900-
   Southeast Minnesota

CITY           SKY/WX    TMP DP  RH WIND       PRES   REMARKS
ROCHESTER      CLEAR     35  26  69 W15       29.61R WCI  25
RED WING       CLEAR     39  19  45 W13G21    29.58R
STANTON        CLEAR     37  23  56 W21G28    29.61R
DODGE CENTER   CLEAR     36  23  60 W18       29.62R
WINONA         CLEAR     41  28  60 W12       29.57R
AUSTIN         PTCLDY    37  25  60 NW14      29.64R
PRESTON        CLEAR     37  26  66 NW17      29.61R
$$
ABBREVIATIONS USED IN REMARKS
   TC - TEMPERATURES IN CELSIUS
  WCI - WIND CHILL INDEX
   HX - HEAT INDEX
  VSB - VISIBILITY
$$




USA.gov is the U.S. government's official web portal to all federal, state and local government web resources and services.